Change the Weather History Date:

Friday, December 13, 2013

  Actual Average (KACT) Record (KACT)
Temperature  
Mean Temperature 42 °F 48 °F  
Max Temperature 46 °F 59 °F 80 °F (1948)
Min Temperature 39 °F 38 °F 18 °F (1989)
Degree Days  
Heating Degree Days 22 17  
Month to date heating degree days 200  
Since 1 July heating degree days 528  
Cooling Degree Days 0 0  
Month to date cooling degree days 0  
Year to date cooling degree days 2792  
Moisture  
Dew Point 38 °F    
Average Humidity 82    
Maximum Humidity 95    
Minimum Humidity 67    
Precipitation  
Precipitation 0.07 in 0.09 in 2.65 in (1923)
Month to date precipitation 1.15  
Year to date precipitation 33.09  
Snow  
Snow 0.00 in 0.00 in 1.00 in (1963)
Month to date snowfall 0.0  
Since 1 July snowfall 0.1  
Snow Depth -    
Sea Level Pressure  
Sea Level Pressure 30.03 in    
Wind  
Wind Speed 9 mph (SSE)    
Max Wind Speed 14 mph    
Max Gust Speed 17 mph    
Visibility 6 miles    
Events Fog , Rain    
T = Trace of Precipitation, MM = Missing Value Source: NWS Daily Summary

Daily Weather History Graph

Daily Weather History Graph

Search for Another Location

Airport or City:

Trip Planner

Search our weather history database for the weather conditions in past years. The results will help you decide how hot, cold, wet, or windy it might be!

Date:

Astronomy

Dec. 13, 2013 Rise Set
Actual Time 7:20 AM CST 5:24 PM CST
Civil Twilight 6:53 AM CST 5:51 PM CST
Nautical Twilight 6:23 AM CST 6:22 PM CST
Astronomical Twilight 5:53 AM CST 6:52 PM CST
Moon 3:01 PM CST (12/13) 3:53 AM CST (12/13)
Length of Visible Light 10h 58m
Length of Day
10h 04m
Waxing Gibbous, 88% of the Moon is Illuminated
Dec 13
Waxing Gibbous
Dec 17
Full
Dec 25
Last Quarter
Jan 1
New
Jan 7
First Quarter

Hourly Weather History & Observations

Time (CST) Temp. Windchill Dew Point Humidity Pressure Visibility Wind Dir Wind Speed Gust Speed Precip Events Conditions
12:15 AM 40.6 °F 36.7 °F 32.9 °F 74% 30.30 in 10.0 mi SE 5.8 mph - N/A   Clear
12:35 AM 40.8 °F 35.6 °F 32.0 °F 71% 30.28 in 10.0 mi SE 8.1 mph - N/A   Clear
12:55 AM 41.5 °F 35.9 °F 31.6 °F 68% 30.26 in 10.0 mi SE 9.2 mph - N/A   Clear
1:15 AM 41.5 °F 36.4 °F 31.8 °F 68% 30.26 in 10.0 mi SE 8.1 mph - N/A   Clear
1:35 AM 40.5 °F 35.8 °F 31.8 °F 71% 30.25 in 10.0 mi SE 6.9 mph - N/A   Clear
1:55 AM 39.7 °F 35.6 °F 32.0 °F 74% 30.27 in 10.0 mi SSE 5.8 mph - N/A   Clear
2:15 AM 39.2 °F 34.2 °F 32.2 °F 76% 30.26 in 10.0 mi SSE 6.9 mph - N/A   Clear
2:35 AM 40.6 °F 35.4 °F 32.7 °F 73% 30.26 in 10.0 mi South 8.1 mph - N/A   Clear
2:55 AM 40.3 °F 37.1 °F 32.7 °F 74% 30.25 in 10.0 mi South 4.6 mph - N/A   Clear
3:15 AM 40.5 °F 35.8 °F 32.9 °F 74% 30.23 in 10.0 mi SSE 6.9 mph - N/A   Scattered Clouds
3:35 AM 41.4 °F 36.8 °F 32.9 °F 72% 30.23 in 10.0 mi SSE 6.9 mph - N/A   Mostly Cloudy
3:55 AM 42.3 °F 37.9 °F 32.7 °F 69% 30.22 in 10.0 mi South 6.9 mph - N/A   Overcast
4:15 AM 42.8 °F 38.0 °F 32.5 °F 67% 30.22 in 10.0 mi South 8.1 mph - N/A   Overcast
4:35 AM 42.3 °F 37.9 °F 33.1 °F 70% 30.21 in 10.0 mi South 6.9 mph - N/A   Overcast
4:55 AM 42.4 °F 38.1 °F 33.4 °F 70% 30.19 in 10.0 mi SSE 6.9 mph - N/A   Overcast
5:15 AM 42.6 °F 37.2 °F 33.8 °F 71% 30.18 in 10.0 mi SSE 9.2 mph - N/A   Overcast
5:35 AM 42.8 °F 36.6 °F 33.4 °F 70% 30.17 in 10.0 mi SSE 11.5 mph - N/A   Overcast
5:55 AM 43.0 °F 37.2 °F 33.8 °F 70% 30.17 in 10.0 mi SSE 10.4 mph - N/A   Overcast
6:15 AM 42.8 °F 36.6 °F 34.0 °F 71% 30.16 in 10.0 mi SSE 11.5 mph - N/A   Overcast
6:35 AM 42.8 °F 37.5 °F 34.2 °F 72% 30.15 in 10.0 mi SSE 9.2 mph - N/A   Overcast
6:55 AM 42.8 °F 37.0 °F 34.0 °F 71% 30.14 in 10.0 mi SSE 10.4 mph - N/A   Overcast
7:15 AM 42.8 °F 37.0 °F 34.3 °F 72% 30.14 in 10.0 mi SSE 10.4 mph - N/A   Light Drizzle
7:35 AM 43.0 °F 36.4 °F 34.5 °F 72% 30.13 in 10.0 mi SE 12.7 mph - N/A   Overcast
7:55 AM 42.8 °F 36.2 °F 34.9 °F 74% 30.13 in 10.0 mi SSE 12.7 mph - N/A   Overcast
8:15 AM 43.2 °F 37.4 °F 35.1 °F 73% 30.14 in 10.0 mi SSE 10.4 mph - N/A   Drizzle
8:35 AM 42.8 °F 37.0 °F 35.6 °F 76% 30.14 in 10.0 mi SSE 10.4 mph - N/A Rain Light Rain
8:55 AM 42.4 °F 36.5 °F 36.5 °F 79% 30.14 in 10.0 mi SSE 10.4 mph - N/A   Drizzle
9:15 AM 41.9 °F 35.4 °F 36.5 °F 81% 30.12 in 5.0 mi SSE 11.5 mph - 0.03 in Rain Light Rain
9:35 AM 41.9 °F 35.9 °F 37.0 °F 83% 30.12 in 7.0 mi SSE 10.4 mph - 0.04 in Rain Rain
9:55 AM 42.1 °F 35.7 °F 37.4 °F 83% 30.11 in 10.0 mi SSE 11.5 mph - 0.05 in   Overcast
10:15 AM 42.3 °F 35.9 °F 37.8 °F 84% 30.11 in 7.0 mi SSE 11.5 mph - N/A   Overcast
10:35 AM 42.8 °F 37.5 °F 38.1 °F 84% 30.11 in 10.0 mi SSE 9.2 mph - N/A   Overcast
10:55 AM 42.8 °F 36.6 °F 37.9 °F 83% 30.10 in 10.0 mi SSE 11.5 mph - N/A   Overcast
11:15 AM 43.0 °F 37.2 °F 38.3 °F 84% 30.08 in 10.0 mi SSE 10.4 mph - N/A   Overcast
11:35 AM 43.7 °F 38.1 °F 38.7 °F 82% 30.06 in 10.0 mi SSE 10.4 mph - N/A   Overcast
11:55 AM 43.7 °F 37.3 °F 38.8 °F 83% 30.04 in 10.0 mi SSE 12.7 mph - N/A   Overcast
12:15 PM 43.9 °F 37.9 °F 39.2 °F 84% 30.02 in 10.0 mi SSE 11.5 mph - N/A   Overcast
12:35 PM 44.1 °F 37.7 °F 39.2 °F 83% 30.01 in 10.0 mi SSE 12.7 mph - N/A   Overcast
12:55 PM 44.1 °F 38.1 °F 39.2 °F 83% 29.98 in 10.0 mi SSE 11.5 mph - N/A   Overcast
1:15 PM 44.2 °F 38.0 °F 39.6 °F 84% 29.95 in 7.0 mi SSE 12.7 mph - N/A   Overcast
1:35 PM 44.6 °F 38.4 °F 40.1 °F 84% 29.94 in 7.0 mi SSE 12.7 mph - N/A   Overcast
1:55 PM 45.0 °F 39.7 °F 40.3 °F 84% 29.94 in 7.0 mi South 10.4 mph - N/A   Overcast
2:15 PM 44.6 °F 40.2 °F 39.7 °F 83% 29.95 in 7.0 mi SSW 8.1 mph - N/A   Overcast
2:35 PM 44.6 °F 40.2 °F 40.1 °F 84% 29.94 in 5.0 mi South 8.1 mph - N/A   Haze
2:55 PM 44.2 °F 39.7 °F 40.3 °F 86% 29.93 in 2.5 mi South 8.1 mph - N/A   Drizzle
3:15 PM 43.9 °F 39.3 °F 40.3 °F 87% 29.94 in 1.8 mi South 8.1 mph - N/A   Drizzle
3:35 PM 43.9 °F 37.9 °F 40.8 °F 89% 29.90 in 1.8 mi SSE 11.5 mph - N/A   Light Drizzle
3:55 PM 43.9 °F 38.3 °F 41.0 °F 90% 29.91 in 2.0 mi SSE 10.4 mph - N/A   Overcast
4:15 PM 44.2 °F 38.8 °F 41.5 °F 90% 29.89 in 3.0 mi SSE 10.4 mph - 0.01 in Rain Rain
4:35 PM 44.6 °F 39.2 °F 41.9 °F 90% 29.89 in 3.0 mi SSE 10.4 mph - 0.01 in   Overcast
4:55 PM 44.8 °F 39.4 °F 42.3 °F 91% 29.89 in 3.0 mi South 10.4 mph - 0.01 in   Overcast
5:15 PM 45.1 °F 40.8 °F 42.8 °F 91% 29.88 in 3.0 mi SSE 8.1 mph - N/A   Overcast
5:35 PM 45.1 °F 39.9 °F 42.8 °F 91% 29.87 in 5.0 mi SSE 10.4 mph - N/A   Overcast
5:55 PM 45.5 °F 40.8 °F 43.0 °F 91% 29.86 in 5.0 mi SSE 9.2 mph - N/A   Mostly Cloudy
6:15 PM 45.3 °F 39.7 °F 43.0 °F 92% 29.85 in 5.0 mi SSE 11.5 mph - N/A   Scattered Clouds
6:35 PM 45.5 °F 41.3 °F 43.0 °F 91% 29.85 in 4.0 mi SE 8.1 mph - N/A   Scattered Clouds
6:55 PM 45.3 °F 40.6 °F 43.0 °F 92% 29.86 in 3.0 mi SSE 9.2 mph - N/A   Mostly Cloudy
7:15 PM 45.5 °F 40.3 °F 43.2 °F 92% 29.86 in 3.0 mi SSE 10.4 mph - N/A Rain Light Rain
7:35 PM 45.5 °F 39.6 °F 43.3 °F 92% 29.86 in 3.0 mi South 12.7 mph 17.3 mph N/A   Overcast
7:55 PM 45.5 °F 40.8 °F 43.3 °F 92% 29.87 in 1.8 mi South 9.2 mph - N/A   Overcast
8:15 PM 45.5 °F 40.3 °F 43.7 °F 93% 29.87 in 1.2 mi South 10.4 mph - N/A   Overcast
8:35 PM 45.7 °F 41.5 °F 43.9 °F 93% 29.87 in 1.0 mi South 8.1 mph - N/A   Overcast
8:55 PM 45.7 °F 40.6 °F 43.9 °F 93% 29.87 in 0.8 mi South 10.4 mph - N/A   Overcast
9:15 PM 45.9 °F 40.4 °F 44.1 °F 93% 29.86 in 0.8 mi South 11.5 mph - N/A   Overcast
9:35 PM 45.9 °F 40.4 °F 44.2 °F 94% 29.85 in 0.5 mi South 11.5 mph - N/A Fog Fog
9:55 PM 46.0 °F 40.6 °F 44.6 °F 95% 29.85 in 0.5 mi South 11.5 mph - N/A Fog Fog
10:15 PM 45.9 °F 39.7 °F 44.4 °F 95% 29.85 in 0.5 mi South 13.8 mph - N/A Fog Fog
10:35 PM 46.0 °F 41.0 °F 44.6 °F 95% 29.85 in 0.2 mi South 10.4 mph - N/A Fog Fog
10:55 PM 46.4 °F 41.5 °F 44.8 °F 94% 29.84 in 0.5 mi South 10.4 mph - N/A Fog Fog
11:15 PM 46.4 °F 41.1 °F 44.8 °F 94% 29.84 in 0.5 mi South 11.5 mph - 0.01 in Fog Fog
11:35 PM 46.6 °F - 45.1 °F 95% 29.84 in 0.5 mi South 13.8 mph - 0.01 in Fog Fog
11:55 PM 46.9 °F - 45.5 °F 95% 29.84 in 0.5 mi South 9.2 mph - 0.01 in Fog Fog